48 Hour Max Wind (MPH) Per Hour History for Toms River, NJ

Daily Weather Archive for Toms River, NJ

Today's Weather Summary

Current Weather Observations

Today's Max Wind Per Hour

Yesterday's Max Wind Per Hou


Today's Max Wind Speed Per Hour

 

Yesterday's Max Wind Speed Per Hour

Hour (24)  Reading Date & Time  Max Wind Speed Per Hr
09/27/2021 - 12:53:01 AM5
19/27/2021 - 1:53:02 AM4
29/27/2021 - 2:53:01 AM4
39/27/2021 - 3:53:01 AM1
49/27/2021 - 4:53:01 AM4
59/27/2021 - 5:53:01 AM5
69/27/2021 - 6:53:01 AM5
79/27/2021 - 7:53:01 AM6
89/27/2021 - 8:53:01 AM8
99/27/2021 - 9:53:01 AM5
109/27/2021 - 10:53:01 AM9
119/27/2021 - 11:53:01 AM6
129/27/2021 - 12:53:01 PM8
139/27/2021 - 1:53:04 PM9
149/27/2021 - 2:53:01 PM10
159/27/2021 - 3:53:01 PM10
1600
1700
1800
1900
2000
2100
2200
2300
 
Hour (24)  Reading Date & Time  Max Wind/Hr
09/26/2021 - 12:53:01 AM4
19/26/2021 - 1:53:01 AM3
29/26/2021 - 2:53:01 AM2
39/26/2021 - 3:53:01 AM4
49/26/2021 - 4:53:01 AM6
59/26/2021 - 5:53:01 AM6
69/26/2021 - 6:53:01 AM6
79/26/2021 - 7:53:01 AM4
89/26/2021 - 8:53:04 AM6
99/26/2021 - 9:53:02 AM8
109/26/2021 - 10:53:01 AM9
119/26/2021 - 11:53:03 AM8
129/26/2021 - 12:53:01 PM10
139/26/2021 - 1:53:02 PM12
149/26/2021 - 2:53:01 PM11
159/26/2021 - 3:53:01 PM12
169/26/2021 - 4:53:01 PM10
179/26/2021 - 5:53:01 PM8
189/26/2021 - 6:53:01 PM7
199/26/2021 - 7:53:01 PM3
209/26/2021 - 8:53:01 PM1
219/26/2021 - 9:53:01 PM3
229/26/2021 - 10:53:01 PM2
239/26/2021 - 11:53:01 PM3